QPF
0.03 0.03 0.04 0.04 0.04 0.04 0.04 0.03 0.03 0.03 0.02 0.01 0.01 0.01 0.01 0.01 0.01 0.01 0.01 0.02 0.02 0.01 0.01 0.01 0.01 0.01 0.02 0.02 0.02 0.02 0.02 0.03 0.02 0.01 0.01 0.01 0.01 0.02 0.03 0.03 0.03 0.03 0.03
0.01 0.02 0.02 0.03 0.03 0.04 0.04 0.04 0.03 0.02 0.02 0.02 0.01 0.01 0.01 0.01 0.01 0.01 0.01 0.01 0.01 0.01 0.01 0.01 0.01 0.02 0.02 0.02 0.03 0.03 0.03 0.03 0.03 0.02 0.01 0.02 0.02 0.02 0.02 0.02 0.02 0.02 0.02
0.01 0.01 0.01 0.02 0.02 0.03 0.03 0.03 0.02 0.02 0.02 0.01 0.01 0.01 0.01 0.01 0.01 0.01 0.01 0.01 0.01 0.01 0.01 0.01 0.01 0.02 0.02 0.02 0.03 0.03 0.03 0.03 0.03 0.03 0.02 0.02 0.02 0.03 0.03 0.03 0.03 0.03 0.03
0.01 0.01 0.01 0.01 0.01 0.01 0.01 0.02 0.02 0.02 0.01 0.01 0.01 0.01 0.01 0.01 0.00 0.00 0.00 0.01 0.01 0.01 0.01 0.01 0.01 0.02 0.02 0.02 0.02 0.03 0.03 0.03 0.03 0.03 0.02 0.02 0.02 0.02 0.03 0.03 0.04 0.03 0.03
0.02 0.01 0.01 0.01 0.01 0.01 0.01 0.01 0.01 0.02 0.01 0.01 0.01 0.01 0.01 0.00 0.00 0.00 0.00 0.00 0.01 0.01 0.01 0.01 0.01 0.01 0.01 0.01 0.02 0.02 0.03 0.04 0.04 0.04 0.03 0.03 0.03 0.03 0.03 0.02 0.03 0.02 0.02
0.01 0.01 0.01 0.00 0.00 0.01 0.01 0.01 0.01 0.01 0.01 0.01 0.01 0.01 0.01 0.01 0.01 0.01 0.01 0.01 0.01 0.01 0.01 0.01 0.01 0.01 0.01 0.01 0.02 0.02 0.02 0.03 0.04 0.03 0.03 0.02 0.02 0.02 0.02 0.02 0.02 0.02 0.02
0.01 0.01 0.01 0.00 0.00 0.00 0.00 0.00 0.00 0.00 0.00 0.01 0.01 0.01 0.01 0.01 0.01 0.01 0.01 0.01 0.01 0.01 0.01 0.01 0.01 0.01 0.01 0.01 0.01 0.02 0.02 0.03 0.03 0.03 0.02 0.02 0.02 0.02 0.02 0.03 0.02 0.03 0.02
0.02 0.01 0.01 0.01 0.01 0.00 0.01 0.01 0.01 0.01 0.01 0.01 0.01 0.01 0.01 0.01 0.01 0.00 0.01 0.01 0.01 0.01 0.01 0.01 0.01 0.01 0.02 0.02 0.02 0.02 0.01 0.02 0.02 0.02 0.02 0.02 0.02 0.03 0.03 0.03 0.04 0.03 0.03
0.05 0.03 0.02 0.01 0.01 0.01 0.01 0.01 0.01 0.01 0.01 0.01 0.00 0.00 0.00 0.00 0.00 0.00 0.01 0.01 0.01 0.01 0.02 0.02 0.02 0.02 0.02 0.03 0.03 0.02 0.02 0.02 0.03 0.03 0.03 0.03 0.03 0.03 0.03 0.04 0.04 0.04 0.04
0.05 0.06 0.05 0.03 0.02 0.02 0.01 0.01 0.01 0.01 0.01 0.01 0.01 0.01 0.00 0.00 0.01 0.01 0.01 0.01 0.01 0.01 0.01 0.02 0.02 0.03 0.03 0.04 0.03 0.03 0.03 0.03 0.03 0.03 0.03 0.04 0.03 0.03 0.03 0.03 0.03 0.05 0.05
0.03 0.03 0.04 0.04 0.04 0.03 0.02 0.02 0.02 0.02 0.02 0.02 0.02 0.01 0.01 0.01 0.01 0.01 0.01 0.01 0.01 0.01 0.01 0.01 0.01 0.02 0.03 0.03 0.03 0.03 0.03 0.03 0.03 0.03 0.03 0.03 0.03 0.03 0.03 0.03 0.03 0.04 0.05
0.03 0.03 0.02 0.03 0.04 0.04 0.04 0.03 0.03 0.02 0.02 0.02 0.02 0.02 0.02 0.02 0.02 0.02 0.02 0.02 0.02 0.02 0.01 0.01 0.02 0.03 0.03 0.02 0.02 0.02 0.03 0.03 0.03 0.03 0.03 0.03 0.03 0.03 0.03 0.03 0.03 0.03 0.03
0.03 0.03 0.03 0.02 0.02 0.03 0.03 0.03 0.02 0.02 0.01 0.01 0.01 0.01 0.01 0.01 0.02 0.02 0.02 0.02 0.02 0.02 0.02 0.02 0.02 0.03 0.02 0.02 0.02 0.03 0.03 0.03 0.03 0.03 0.03 0.03 0.02 0.02 0.02 0.02 0.02 0.02 0.02
0.04 0.04 0.04 0.03 0.02 0.02 0.02 0.02 0.02 0.01 0.01 0.01 0.01 0.01 0.01 0.01 0.01 0.01 0.01 0.01 0.02 0.02 0.02 0.02 0.03 0.02 0.02 0.02 0.03 0.03 0.02 0.03 0.03 0.03 0.03 0.03 0.03 0.03 0.03 0.03 0.03 0.03 0.03
0.04 0.04 0.04 0.04 0.03 0.02 0.02 0.02 0.01 0.01 0.01 0.01 0.01 0.01 0.02 0.01 0.01 0.01 0.02 0.02 0.02 0.02 0.02 0.02 0.02 0.02 0.02 0.02 0.02 0.02 0.02 0.02 0.03 0.03 0.04 0.04 0.04 0.04 0.04 0.03 0.03 0.03 0.03
0.03 0.03 0.03 0.04 0.03 0.02 0.01 0.01 0.01 0.01 0.01 0.01 0.01 0.01 0.02 0.02 0.02 0.02 0.02 0.02 0.02 0.02 0.02 0.02 0.02 0.02 0.02 0.02 0.02 0.03 0.03 0.03 0.04 0.04 0.04 0.04 0.04 0.04 0.03 0.03 0.02 0.02 0.02
0.02 0.02 0.02 0.02 0.02 0.02 0.01 0.01 0.01 0.01 0.01 0.01 0.01 0.01 0.01 0.02 0.02 0.02 0.02 0.02 0.02 0.02 0.02 0.02 0.01 0.02 0.02 0.02 0.02 0.02 0.02 0.03 0.03 0.03 0.03 0.03 0.03 0.03 0.02 0.02 0.02 0.02 0.02
0.01 0.01 0.01 0.01 0.01 0.01 0.01 0.01 0.01 0.01 0.02 0.01 0.01 0.01 0.01 0.01 0.02 0.02 0.02 0.02 0.02 0.01 0.01 0.02 0.02 0.02 0.02 0.02 0.02 0.02 0.02 0.02 0.02 0.02 0.02 0.02 0.02 0.03 0.02 0.02 0.02 0.02 0.02
0.01 0.01 0.01 0.01 0.01 0.01 0.01 0.01 0.01 0.01 0.01 0.02 0.02 0.02 0.01 0.01 0.01 0.02 0.01 0.02 0.02 0.01 0.01 0.01 0.01 0.02 0.02 0.02 0.02 0.02 0.02 0.02 0.02 0.02 0.02 0.02 0.02 0.03 0.03 0.02 0.02 0.02 0.01
0.01 0.01 0.01 0.01 0.01 0.01 0.01 0.01 0.01 0.01 0.01 0.01 0.02 0.02 0.02 0.01 0.01 0.01 0.01 0.02 0.02 0.01 0.01 0.01 0.02 0.02 0.02 0.02 0.02 0.02 0.02 0.02 0.02 0.02 0.02 0.02 0.02 0.02 0.02 0.02 0.01 0.01 0.01
0.01 0.01 0.01 0.01 0.01 0.01 0.01 0.02 0.02 0.02 0.01 0.01 0.02 0.02 0.02 0.02 0.02 0.01 0.01 0.02 0.02 0.01 0.02 0.02 0.02 0.02 0.02 0.02 0.03 0.02 0.02 0.02 0.02 0.02 0.02 0.02 0.02 0.02 0.02 0.02 0.02 0.01 0.01
0.01 0.02 0.02 0.02 0.02 0.02 0.02 0.02 0.02 0.02 0.02 0.02 0.02 0.02 0.02 0.02 0.01 0.01 0.01 0.01 0.02 0.02 0.02 0.02 0.02 0.02 0.02 0.03 0.03 0.03 0.03 0.02 0.02 0.02 0.02 0.02 0.02 0.02 0.02 0.02 0.02 0.02 0.02
0.02 0.02 0.02 0.02 0.03 0.03 0.03 0.02 0.02 0.02 0.02 0.02 0.02 0.02 0.02 0.02 0.02 0.02 0.02 0.02 0.02 0.02 0.01 0.01 0.01 0.02 0.02 0.02 0.02 0.03 0.02 0.02 0.02 0.02 0.03 0.02 0.02 0.02 0.02 0.02 0.02 0.01 0.01
0.02 0.02 0.02 0.03 0.03 0.03 0.03 0.03 0.02 0.02 0.02 0.02 0.03 0.03 0.03 0.03 0.02 0.02 0.02 0.02 0.02 0.02 0.01 0.01 0.01 0.01 0.01 0.01 0.01 0.01 0.01 0.02 0.02 0.02 0.02 0.02 0.02 0.02 0.02 0.02 0.01 0.01 0.01
0.02 0.02 0.03 0.03 0.03 0.03 0.03 0.02 0.03 0.03 0.03 0.03 0.03 0.03 0.03 0.03 0.03 0.03 0.03 0.02 0.03 0.02 0.01 0.01 0.01 0.01 0.01 0.01 0.01 0.01 0.01 0.01 0.01 0.02 0.02 0.02 0.02 0.02 0.02 0.02 0.01 0.01 0.01
0.02 0.02 0.02 0.02 0.02 0.02 0.03 0.03 0.03 0.03 0.03 0.03 0.03 0.03 0.03 0.03 0.03 0.03 0.03 0.03 0.03 0.02 0.01 0.01 0.01 0.01 0.01 0.01 0.01 0.01 0.01 0.01 0.01 0.01 0.02 0.02 0.02 0.01 0.02 0.02 0.01 0.01 0.01
MSLP
1022.82 1022.20 1021.56 1020.91 1020.29 1019.70 1019.16 1018.65 1018.17 1017.70 1017.21 1016.70 1016.18 1015.65 1015.16 1014.72 1014.38 1014.17 1014.08 1014.13 1014.28 1014.50 1014.76 1015.03 1015.29 1015.53 1015.78 1016.05 1016.37 1016.78 1017.27 1017.86 1018.52 1019.21 1019.90 1020.52 1021.05 1021.47 1021.76 1021.93 1022.00 1022.01 1021.97
1023.56 1022.95 1022.30 1021.65 1021.01 1020.40 1019.82 1019.27 1018.72 1018.17 1017.60 1016.99 1016.36 1015.73 1015.13 1014.60 1014.18 1013.89 1013.75 1013.75 1013.87 1014.07 1014.31 1014.57 1014.82 1015.07 1015.32 1015.62 1015.98 1016.43 1016.99 1017.64 1018.37 1019.13 1019.88 1020.55 1021.12 1021.56 1021.85 1022.01 1022.06 1022.03 1021.95
1024.27 1023.65 1023.00 1022.35 1021.70 1021.07 1020.47 1019.88 1019.28 1018.66 1018.01 1017.32 1016.61 1015.90 1015.22 1014.63 1014.16 1013.84 1013.67 1013.65 1013.76 1013.95 1014.19 1014.45 1014.70 1014.96 1015.22 1015.53 1015.91 1016.39 1016.97 1017.65 1018.40 1019.19 1019.95 1020.64 1021.22 1021.65 1021.93 1022.07 1022.10 1022.04 1021.94
1024.93 1024.31 1023.66 1023.01 1022.35 1021.72 1021.09 1020.46 1019.82 1019.16 1018.45 1017.70 1016.94 1016.18 1015.46 1014.85 1014.36 1014.02 1013.85 1013.84 1013.96 1014.16 1014.41 1014.67 1014.94 1015.20 1015.47 1015.78 1016.16 1016.63 1017.20 1017.87 1018.60 1019.37 1020.11 1020.78 1021.33 1021.75 1022.01 1022.14 1022.15 1022.08 1021.96
1025.56 1024.93 1024.28 1023.62 1022.97 1022.32 1021.67 1021.02 1020.36 1019.66 1018.92 1018.14 1017.35 1016.58 1015.86 1015.25 1014.77 1014.45 1014.30 1014.31 1014.44 1014.66 1014.93 1015.21 1015.48 1015.74 1016.01 1016.31 1016.67 1017.10 1017.63 1018.25 1018.94 1019.65 1020.34 1020.97 1021.49 1021.88 1022.13 1022.25 1022.26 1022.19 1022.07
1026.14 1025.51 1024.86 1024.20 1023.53 1022.88 1022.22 1021.56 1020.88 1020.17 1019.42 1018.65 1017.86 1017.11 1016.41 1015.82 1015.38 1015.09 1014.97 1015.00 1015.16 1015.40 1015.68 1015.96 1016.24 1016.50 1016.75 1017.02 1017.34 1017.73 1018.21 1018.76 1019.37 1020.01 1020.64 1021.22 1021.70 1022.07 1022.31 1022.44 1022.47 1022.41 1022.30
1026.69 1026.06 1025.40 1024.73 1024.06 1023.40 1022.74 1022.07 1021.39 1020.69 1019.96 1019.20 1018.45 1017.73 1017.08 1016.54 1016.13 1015.88 1015.79 1015.85 1016.02 1016.26 1016.55 1016.83 1017.10 1017.35 1017.58 1017.83 1018.11 1018.44 1018.85 1019.33 1019.87 1020.44 1021.00 1021.53 1021.98 1022.34 1022.59 1022.74 1022.79 1022.77 1022.67
1027.19 1026.56 1025.90 1025.22 1024.55 1023.88 1023.21 1022.55 1021.88 1021.19 1020.49 1019.78 1019.07 1018.40 1017.81 1017.31 1016.95 1016.74 1016.67 1016.74 1016.92 1017.16 1017.44 1017.72 1017.98 1018.21 1018.43 1018.65 1018.89 1019.18 1019.53 1019.94 1020.41 1020.91 1021.42 1021.91 1022.34 1022.69 1022.96 1023.14 1023.22 1023.23 1023.16
1027.63 1027.01 1026.35 1025.66 1024.97 1024.29 1023.62 1022.96 1022.30 1021.64 1020.97 1020.31 1019.66 1019.05 1018.51 1018.06 1017.74 1017.56 1017.51 1017.59 1017.76 1018.00 1018.27 1018.54 1018.79 1019.02 1019.23 1019.43 1019.65 1019.91 1020.22 1020.58 1021.00 1021.45 1021.91 1022.36 1022.77 1023.13 1023.41 1023.61 1023.72 1023.76 1023.70
1028.01 1027.39 1026.72 1026.03 1025.32 1024.63 1023.95 1023.28 1022.63 1021.99 1021.36 1020.74 1020.14 1019.59 1019.10 1018.70 1018.42 1018.26 1018.23 1018.31 1018.48 1018.72 1018.99 1019.26 1019.52 1019.76 1019.98 1020.19 1020.41 1020.65 1020.93 1021.26 1021.63 1022.04 1022.46 1022.88 1023.26 1023.61 1023.89 1024.10 1024.23 1024.27 1024.22
1028.30 1027.68 1027.00 1026.29 1025.57 1024.85 1024.16 1023.49 1022.84 1022.21 1021.61 1021.02 1020.47 1019.96 1019.53 1019.17 1018.93 1018.80 1018.78 1018.88 1019.06 1019.31 1019.59 1019.89 1020.18 1020.45 1020.70 1020.94 1021.17 1021.42 1021.69 1022.00 1022.33 1022.69 1023.06 1023.43 1023.78 1024.10 1024.36 1024.55 1024.67 1024.70 1024.63
1028.47 1027.85 1027.16 1026.43 1025.69 1024.95 1024.24 1023.56 1022.90 1022.29 1021.70 1021.14 1020.63 1020.16 1019.77 1019.46 1019.26 1019.16 1019.18 1019.30 1019.51 1019.79 1020.12 1020.46 1020.80 1021.12 1021.42 1021.71 1021.98 1022.24 1022.51 1022.79 1023.09 1023.40 1023.71 1024.02 1024.30 1024.56 1024.77 1024.92 1025.00 1025.00 1024.90
1028.50 1027.87 1027.17 1026.42 1025.67 1024.92 1024.19 1023.50 1022.84 1022.22 1021.65 1021.12 1020.63 1020.21 1019.86 1019.60 1019.44 1019.39 1019.46 1019.62 1019.89 1020.22 1020.61 1021.01 1021.42 1021.81 1022.18 1022.52 1022.83 1023.12 1023.38 1023.64 1023.90 1024.14 1024.38 1024.60 1024.80 1024.97 1025.10 1025.18 1025.20 1025.15 1025.01
1028.36 1027.72 1027.02 1026.27 1025.51 1024.76 1024.03 1023.33 1022.68 1022.07 1021.51 1021.01 1020.56 1020.18 1019.88 1019.67 1019.57 1019.57 1019.70 1019.93 1020.25 1020.66 1021.11 1021.59 1022.07 1022.54 1022.98 1023.37 1023.71 1024.02 1024.28 1024.51 1024.71 1024.88 1025.03 1025.16 1025.26 1025.33 1025.36 1025.35 1025.29 1025.17 1024.98
1028.03 1027.40 1026.71 1025.98 1025.24 1024.50 1023.78 1023.10 1022.47 1021.89 1021.36 1020.88 1020.48 1020.15 1019.91 1019.76 1019.72 1019.79 1019.98 1020.28 1020.67 1021.14 1021.66 1022.21 1022.76 1023.29 1023.78 1024.21 1024.58 1024.90 1025.14 1025.34 1025.48 1025.58 1025.65 1025.67 1025.67 1025.64 1025.57 1025.46 1025.31 1025.12 1024.86
1027.52 1026.91 1026.26 1025.57 1024.87 1024.17 1023.50 1022.87 1022.28 1021.74 1021.26 1020.84 1020.49 1020.22 1020.04 1019.96 1019.99 1020.13 1020.38 1020.73 1021.18 1021.71 1022.28 1022.87 1023.46 1024.02 1024.54 1024.99 1025.37 1025.67 1025.90 1026.06 1026.15 1026.19 1026.18 1026.13 1026.03 1025.90 1025.74 1025.55 1025.32 1025.04 1024.72
1026.86 1026.29 1025.69 1025.07 1024.44 1023.82 1023.23 1022.66 1022.15 1021.68 1021.26 1020.92 1020.64 1020.45 1020.34 1020.33 1020.42 1020.62 1020.92 1021.32 1021.80 1022.34 1022.93 1023.53 1024.13 1024.69 1025.20 1025.64 1026.00 1026.29 1026.50 1026.62 1026.68 1026.68 1026.61 1026.50 1026.34 1026.15 1025.91 1025.65 1025.34 1025.00 1024.62
1026.08 1025.58 1025.06 1024.53 1024.00 1023.48 1022.99 1022.53 1022.10 1021.73 1021.41 1021.15 1020.96 1020.85 1020.82 1020.88 1021.03 1021.27 1021.60 1022.01 1022.50 1023.03 1023.59 1024.16 1024.71 1025.23 1025.70 1026.11 1026.45 1026.70 1026.89 1027.00 1027.04 1027.02 1026.93 1026.79 1026.61 1026.37 1026.09 1025.78 1025.42 1025.01 1024.57
1025.27 1024.84 1024.42 1023.99 1023.58 1023.18 1022.81 1022.46 1022.16 1021.90 1021.69 1021.53 1021.44 1021.41 1021.46 1021.58 1021.78 1022.05 1022.39 1022.79 1023.24 1023.72 1024.22 1024.71 1025.19 1025.64 1026.05 1026.39 1026.68 1026.91 1027.08 1027.18 1027.22 1027.21 1027.13 1027.00 1026.81 1026.57 1026.27 1025.92 1025.52 1025.07 1024.57
1024.49 1024.15 1023.82 1023.51 1023.22 1022.94 1022.70 1022.48 1022.30 1022.15 1022.06 1022.01 1022.02 1022.08 1022.20 1022.37 1022.61 1022.89 1023.22 1023.58 1023.97 1024.38 1024.79 1025.18 1025.56 1025.91 1026.23 1026.51 1026.75 1026.94 1027.09 1027.20 1027.26 1027.27 1027.23 1027.12 1026.96 1026.73 1026.43 1026.06 1025.63 1025.14 1024.60
1023.82 1023.56 1023.33 1023.12 1022.94 1022.79 1022.66 1022.56 1022.50 1022.47 1022.48 1022.54 1022.64 1022.78 1022.97 1023.19 1023.45 1023.73 1024.03 1024.35 1024.67 1024.98 1025.28 1025.57 1025.83 1026.08 1026.30 1026.50 1026.69 1026.85 1027.00 1027.11 1027.20 1027.24 1027.24 1027.17 1027.03 1026.82 1026.53 1026.16 1025.71 1025.18 1024.59
1023.32 1023.13 1022.98 1022.87 1022.78 1022.73 1022.70 1022.71 1022.75 1022.82 1022.93 1023.07 1023.25 1023.46 1023.70 1023.96 1024.23 1024.51 1024.78 1025.05 1025.29 1025.51 1025.71 1025.88 1026.04 1026.18 1026.31 1026.44 1026.58 1026.71 1026.85 1026.97 1027.08 1027.15 1027.18 1027.14 1027.03 1026.83 1026.55 1026.17 1025.70 1025.15 1024.53
1023.04 1022.91 1022.83 1022.78 1022.77 1022.79 1022.84 1022.92 1023.03 1023.18 1023.36 1023.57 1023.81 1024.07 1024.35 1024.64 1024.92 1025.19 1025.43 1025.64 1025.82 1025.96 1026.06 1026.14 1026.20 1026.26 1026.32 1026.39 1026.47 1026.58 1026.70 1026.82 1026.94 1027.03 1027.07 1027.05 1026.95 1026.76 1026.46 1026.08 1025.59 1025.03 1024.40
1023.00 1022.91 1022.88 1022.88 1022.91 1022.97 1023.07 1023.19 1023.35 1023.54 1023.77 1024.02 1024.30 1024.60 1024.90 1025.20 1025.48 1025.74 1025.95 1026.13 1026.25 1026.32 1026.36 1026.36 1026.35 1026.34 1026.34 1026.36 1026.40 1026.48 1026.58 1026.70 1026.80 1026.89 1026.93 1026.90 1026.79 1026.58 1026.28 1025.88 1025.39 1024.82 1024.19
1023.18 1023.13 1023.12 1023.14 1023.20 1023.28 1023.39 1023.54 1023.71 1023.92 1024.16 1024.43 1024.73 1025.04 1025.35 1025.65 1025.93 1026.17 1026.36 1026.49 1026.58 1026.60 1026.59 1026.54 1026.48 1026.42 1026.38 1026.35 1026.37 1026.42 1026.49 1026.58 1026.66 1026.72 1026.74 1026.69 1026.56 1026.33 1026.01 1025.61 1025.11 1024.55 1023.94
1023.55 1023.52 1023.53 1023.56 1023.62 1023.70 1023.82 1023.96 1024.13 1024.33 1024.56 1024.82 1025.11 1025.41 1025.71 1026.00 1026.26 1026.47 1026.64 1026.75 1026.80 1026.79 1026.75 1026.67 1026.57 1026.48 1026.40 1026.35 1026.33 1026.35 1026.39 1026.45 1026.49 1026.52 1026.50 1026.42 1026.25 1026.01 1025.68 1025.27 1024.79 1024.26 1023.69
Thickness
5589 5590 5590 5589 5590 5589 5588 5587 5586 5584 5583 5582 5581 5579 5577 5575 5573 5571 5568 5566 5563 5560 5557 5555 5552 5550 5546 5543 5539 5536 5532 5528 5526 5525 5519 5516 5512 5509 5506 5503 5500 5497 5493
5577 5578 5578 5578 5578 5577 5577 5576 5576 5574 5573 5572 5571 5569 5568 5566 5564 5562 5559 5556 5553 5550 5548 5545 5543 5540 5537 5533 5530 5526 5523 5519 5516 5514 5510 5505 5502 5498 5495 5491 5488 5485 5482
5563 5565 5565 5565 5566 5566 5565 5565 5564 5564 5562 5561 5560 5559 5557 5556 5554 5552 5549 5546 5544 5541 5538 5535 5533 5530 5527 5524 5521 5517 5514 5510 5506 5503 5499 5495 5491 5487 5484 5480 5477 5473 5470
5549 5551 5551 5552 5553 5553 5553 5553 5553 5552 5551 5550 5549 5548 5547 5545 5543 5541 5539 5536 5533 5530 5528 5525 5522 5520 5518 5514 5511 5507 5504 5500 5496 5491 5488 5484 5480 5476 5472 5469 5467 5463 5460
5535 5536 5537 5538 5539 5540 5540 5540 5540 5540 5539 5539 5538 5537 5536 5534 5533 5531 5529 5526 5523 5520 5517 5514 5512 5510 5508 5505 5501 5497 5493 5489 5485 5481 5477 5474 5470 5466 5462 5458 5455 5453 5450
5520 5521 5523 5524 5525 5526 5526 5526 5526 5526 5526 5526 5525 5525 5524 5524 5523 5521 5518 5515 5512 5509 5506 5503 5501 5499 5496 5494 5491 5487 5483 5479 5475 5471 5467 5464 5461 5456 5452 5447 5442 5440 5439
5506 5508 5509 5510 5511 5511 5512 5512 5512 5512 5512 5512 5513 5512 5512 5511 5511 5509 5507 5504 5501 5498 5495 5492 5490 5487 5484 5481 5479 5476 5472 5468 5466 5462 5458 5455 5451 5448 5443 5437 5432 5428 5426
5492 5494 5495 5496 5497 5497 5497 5497 5497 5498 5498 5498 5498 5499 5498 5498 5498 5497 5495 5492 5489 5487 5484 5481 5478 5475 5472 5470 5468 5464 5460 5457 5454 5451 5448 5445 5442 5438 5433 5428 5424 5419 5415
5478 5480 5481 5483 5483 5483 5484 5484 5484 5484 5484 5484 5485 5485 5485 5485 5485 5484 5482 5479 5477 5474 5472 5469 5466 5464 5462 5460 5457 5453 5450 5447 5443 5440 5438 5434 5430 5426 5422 5417 5412 5409 5406
5464 5466 5467 5469 5470 5470 5470 5471 5471 5471 5471 5471 5471 5471 5471 5472 5472 5471 5469 5467 5464 5462 5460 5457 5455 5453 5451 5448 5444 5441 5439 5436 5433 5430 5426 5422 5419 5415 5411 5406 5402 5398 5394
5450 5452 5453 5454 5455 5457 5457 5458 5458 5458 5457 5457 5457 5457 5458 5458 5459 5458 5456 5454 5452 5450 5447 5445 5442 5441 5439 5436 5433 5430 5428 5426 5421 5418 5414 5411 5407 5403 5399 5395 5392 5387 5383
5436 5438 5439 5440 5442 5443 5444 5444 5444 5444 5443 5443 5443 5443 5443 5444 5444 5444 5443 5442 5441 5438 5436 5433 5431 5429 5427 5424 5421 5419 5416 5413 5409 5405 5402 5399 5395 5392 5388 5385 5382 5378 5374
5423 5425 5426 5426 5427 5429 5430 5430 5430 5430 5430 5430 5430 5430 5430 5431 5431 5431 5431 5429 5428 5426 5424 5422 5420 5417 5414 5411 5408 5406 5403 5400 5397 5394 5391 5387 5384 5380 5378 5375 5372 5368 5364
5411 5412 5413 5413 5414 5415 5416 5417 5417 5417 5417 5418 5418 5418 5418 5418 5418 5418 5417 5416 5415 5413 5411 5409 5407 5404 5401 5398 5396 5393 5390 5388 5385 5382 5379 5375 5373 5370 5367 5364 5361 5358 5355
5398 5399 5400 5400 5401 5402 5403 5404 5405 5405 5406 5407 5407 5406 5406 5406 5407 5407 5406 5405 5403 5402 5400 5396 5393 5390 5387 5385 5383 5380 5378 5376 5373 5370 5367 5365 5362 5360 5357 5354 5351 5348 5345
5385 5386 5387 5388 5388 5389 5390 5391 5392 5394 5395 5396 5396 5396 5396 5397 5396 5396 5394 5393 5392 5391 5388 5384 5380 5377 5375 5373 5371 5369 5367 5364 5362 5359 5357 5354 5352 5349 5347 5343 5340 5338 5336
5371 5373 5374 5375 5376 5377 5378 5379 5379 5381 5382 5383 5383 5384 5385 5385 5384 5383 5382 5381 5379 5378 5374 5371 5368 5366 5364 5362 5360 5358 5356 5353 5351 5348 5346 5343 5341 5339 5336 5334 5331 5329 5326
5358 5360 5362 5363 5364 5364 5365 5366 5366 5367 5367 5368 5369 5370 5371 5371 5371 5370 5369 5367 5365 5363 5361 5359 5357 5355 5353 5351 5350 5347 5345 5343 5341 5338 5336 5333 5331 5329 5327 5325 5322 5320 5318
5346 5347 5348 5349 5351 5351 5352 5352 5353 5353 5353 5354 5354 5356 5357 5357 5357 5356 5355 5353 5351 5350 5349 5347 5346 5344 5342 5341 5339 5337 5335 5333 5331 5329 5327 5324 5322 5320 5318 5316 5314 5312 5309
5334 5336 5337 5337 5338 5338 5339 5339 5339 5339 5340 5340 5341 5341 5342 5343 5342 5342 5341 5340 5339 5338 5338 5337 5335 5334 5333 5331 5330 5328 5326 5325 5323 5321 5319 5316 5314 5312 5310 5308 5306 5303 5301
5323 5324 5326 5325 5325 5326 5327 5327 5327 5327 5327 5328 5329 5330 5331 5331 5330 5330 5329 5329 5329 5329 5328 5327 5326 5325 5323 5322 5321 5319 5318 5316 5315 5313 5311 5309 5306 5304 5302 5300 5298 5296 5294
5312 5312 5313 5313 5314 5315 5316 5316 5316 5316 5316 5317 5318 5319 5320 5319 5319 5319 5319 5319 5320 5319 5319 5319 5318 5316 5315 5314 5313 5312 5311 5309 5307 5305 5303 5301 5299 5297 5295 5293 5291 5289 5287
5301 5301 5302 5302 5303 5305 5305 5305 5305 5306 5306 5307 5307 5308 5309 5309 5309 5309 5310 5310 5310 5310 5311 5310 5309 5308 5307 5306 5306 5305 5304 5303 5301 5299 5297 5295 5293 5291 5289 5286 5284 5282 5281
5291 5291 5291 5292 5293 5294 5294 5295 5296 5297 5297 5297 5298 5298 5299 5300 5300 5300 5301 5301 5302 5302 5302 5302 5302 5301 5300 5300 5299 5298 5297 5296 5294 5293 5291 5289 5287 5285 5283 5281 5279 5277 5275
5281 5281 5281 5282 5283 5283 5284 5285 5286 5287 5288 5289 5290 5290 5290 5291 5291 5292 5293 5293 5294 5294 5295 5294 5294 5294 5294 5294 5293 5292 5291 5290 5288 5287 5285 5283 5281 5279 5277 5276 5274 5272 5270
5271 5272 5272 5273 5274 5274 5275 5276 5277 5278 5279 5280 5281 5281 5282 5283 5283 5284 5286 5286 5287 5287 5287 5287 5288 5288 5288 5288 5288 5287 5286 5285 5284 5282 5280 5279 5277 5275 5273 5271 5270 5268 5266